| time (UTC) | temp C | wind direction | speed KPH | gust KPH | rain 1hr cm | rain 24hr cm | rain mn cm | humidity % | barometer mb |
| 20260504081524 | 7 | 252 | 6.4 | 8.0 | 0.00 | 0.00 | 0.00 | 46 | 1011.0 |
| 20260504050021 | 10 | 327 | 4.8 | 8.0 | 0.00 | 0.00 | 0.00 | 38 | 1011.7 |
| 20260504044526 | 9 | 295 | 8.0 | 9.7 | 0.00 | 0.00 | 0.00 | 40 | 1011.7 |
| 20260504043026 | 10 | 3 | 3.2 | 11.3 | 0.00 | 0.00 | 0.00 | 39 | 1011.7 |
| 20260504041512 | 11 | 282 | 4.8 | 8.0 | 0.00 | 0.00 | 0.00 | 34 | 1011.3 |
| 20260504040018 | 11 | 290 | 6.4 | 9.7 | 0.00 | 0.00 | 0.00 | 33 | 1011.2 |
| 20260504034531 | 11 | 279 | 4.8 | 8.0 | 0.00 | 0.00 | 0.00 | 33 | 1011.3 |
| 20260504033039 | 12 | 288 | 4.8 | 8.0 | 0.00 | 0.00 | 0.00 | 32 | 1011.3 |
| 20260504031510 | 12 | 311 | 3.2 | 4.8 | 0.00 | 0.00 | 0.00 | 33 | 1011.3 |
| 20260504030017 | 12 | 326 | 4.8 | 8.0 | 0.00 | 0.00 | 0.00 | 32 | 1011.3 |
| 20260504024539 | 12 | 316 | 4.8 | 6.4 | 0.00 | 0.00 | 0.00 | 34 | 1011.2 |
| 20260504023022 | 13 | 329 | 6.4 | 16.1 | 0.00 | 0.00 | 0.00 | 32 | 1011.1 |
| 20260504021525 | 13 | 337 | 8.0 | 9.7 | 0.00 | 0.00 | 0.00 | 31 | 1011.1 |
| 20260504020015 | 14 | 330 | 8.0 | 9.7 | 0.00 | 0.00 | 0.00 | 30 | 1011.1 |
| 20260504014516 | 15 | 347 | 6.4 | 11.3 | 0.00 | 0.00 | 0.00 | 30 | 1011.1 |
| 20260504013022 | 15 | 352 | 6.4 | 12.9 | 0.00 | 0.00 | 0.00 | 30 | 1011.2 |
| 20260504011524 | 15 | 352 | 8.0 | 14.5 | 0.00 | 0.00 | 0.00 | 29 | 1011.1 |
| 20260504010029 | 16 | 360 | 8.0 | 19.3 | 0.00 | 0.00 | 0.00 | 24 | 1011.1 |
| 20260504004533 | 17 | 1 | 16.1 | 20.9 | 0.00 | 0.00 | 0.00 | 21 | 1011.2 |
| 20260504003019 | 17 | 360 | 11.3 | 22.5 | 0.00 | 0.00 | 0.00 | 23 | 1011.3 |
| 20260504001522 | 17 | 22 | 12.9 | 14.5 | 0.00 | 0.00 | 0.00 | 22 | 1011.5 |
| 20260504000028 | 18 | 356 | 6.4 | 16.1 | 0.00 | 0.00 | 0.00 | 26 | 1011.5 |
| 20260503234528 | 18 | 330 | 9.7 | 19.3 | 0.00 | 0.00 | 0.00 | 21 | 1011.6 |
| 20260503233018 | 18 | 360 | 11.3 | 17.7 | 0.00 | 0.00 | 0.00 | 24 | 1011.7 |
| 20260503231523 | 18 | 23 | 12.9 | 20.9 | 0.00 | 0.00 | 0.00 | 25 | 1011.7 |
| 20260503230026 | 18 | 360 | 11.3 | 17.7 | 0.00 | 0.00 | 0.00 | 28 | 1012.0 |
| 20260503224527 | 18 | 18 | 12.9 | 27.4 | 0.00 | 0.00 | 0.00 | 27 | 1012.1 |
| 20260503223017 | 18 | 2 | 14.5 | 22.5 | 0.00 | 0.00 | 0.00 | 25 | 1012.1 |
| 20260503221520 | 18 | 359 | 16.1 | 22.5 | 0.00 | 0.00 | 0.00 | 29 | 1012.3 |
| 20260503220027 | 18 | 344 | 17.7 | 25.7 | 0.00 | 0.00 | 0.00 | 30 | 1012.7 |
| 20260503214527 | 17 | 34 | 12.9 | 20.9 | 0.00 | 0.00 | 0.00 | 31 | 1012.8 |
| 20260503213029 | 16 | 359 | 14.5 | 25.7 | 0.00 | 0.00 | 0.00 | 31 | 1013.0 |
| 20260503211525 | 17 | 336 | 8.0 | 24.1 | 0.00 | 0.00 | 0.00 | 33 | 1013.4 |
| 20260503210022 | 17 | 11 | 11.3 | 24.1 | 0.00 | 0.00 | 0.00 | 30 | 1013.6 |
| 20260503204525 | 17 | 319 | 9.7 | 20.9 | 0.00 | 0.00 | 0.00 | 30 | 1014.0 |
| 20260503203014 | 17 | 359 | 4.8 | 17.7 | 0.00 | 0.00 | 0.00 | 34 | 1014.2 |
| 20260503201518 | 16 | 360 | 9.7 | 27.4 | 0.00 | 0.00 | 0.00 | 35 | 1014.3 |
| 20260503200024 | 16 | 11 | 12.9 | 25.7 | 0.00 | 0.00 | 0.00 | 35 | 1014.6 |
| 20260503194529 | 16 | 338 | 9.7 | 17.7 | 0.00 | 0.00 | 0.00 | 35 | 1014.8 |
| 20260503193029 | 15 | 354 | 11.3 | 17.7 | 0.00 | 0.00 | 0.00 | 39 | 1015.1 |
| 20260503191518 | 15 | 330 | 14.5 | 27.4 | 0.00 | 0.00 | 0.00 | 38 | 1015.4 |
| 20260503190029 | 17 | 5 | 12.9 | 29.0 | 0.00 | 0.00 | 0.00 | 41 | 1015.4 |
| 20260503184524 | 16 | 323 | 12.9 | 22.5 | 0.00 | 0.00 | 0.00 | 38 | 1015.5 |
| 20260503183027 | 15 | 359 | 14.5 | 25.7 | 0.00 | 0.00 | 0.00 | 39 | 1015.6 |
| 20260503181513 | 16 | 30 | 16.1 | 25.7 | 0.00 | 0.00 | 0.00 | 39 | 1015.8 |
| 20260503180021 | 15 | 9 | 14.5 | 29.0 | 0.00 | 0.00 | 0.00 | 43 | 1016.1 |
| 20260503174527 | 15 | 359 | 11.3 | 22.5 | 0.00 | 0.00 | 0.00 | 42 | 1016.2 |
| 20260503173028 | 15 | 25 | 16.1 | 22.5 | 0.00 | 0.00 | 0.00 | 39 | 1016.5 |
| 20260503171529 | 15 | 22 | 9.7 | 16.1 | 0.00 | 0.00 | 0.00 | 40 | 1016.6 |